Retour au catalogue

CZ-6A DEB

ActifPO
NORAD 60843·DEBRIS·🇨🇳 China

Lancé Aug 6, 2024 depuis Taiyuan Satellite Launch Center

Loading…

Prochains Passages (prochaines 24 heures)

TLE

FraisSource: Space-Track

Époque: Sep 14, 2026, 17:30 UTC

1 60843U 24140HW  26257.72933889  .00000778  00000-0  37218-3 0  9999
2 60843  89.0092 266.3390 0061351 278.4469  80.9768 14.17213447106678

Suivez CZ-6A DEB en temps réel avec AllMySat

Download on the App Store